Regional Weather Roundup
Issued by NWS

Home | Current Version | Previous Version | Graphics & Text | Print | Product List | Glossary Off
Versions: 1 2 3 4 5 6 7 8 9 10 11 12 13 14 15 16 17 18 19 20 21 22 23 24 25 26 27 28 29 30 31 32 33 34 35 36 37 38 39 40 41 42 43 44 45 46 47 48 49 50

000
ASUS43 KTOP 171608
RWRKS

WEATHER ROUNDUP FOR KANSAS
NATIONAL WEATHER SERVICE GOODLAND KS
1100 AM CDT TUE OCT 17 2017

NOTE:  "FAIR" INDICATES FEW OR NO CLOUDS BELOW 12,000 FEET WITH NO
SIGNIFICANT WEATHER AND/OR OBSTRUCTIONS TO VISIBILITY.

KSZ001>006-013>018-027>032-041>047-171700-
NORTHWEST KANSAS

CITY           SKY/WX    TMP DP  RH WIND       PRES   REMARKS
GOODLAND       SUNNY     63  31  30 N5        30.19S
HAYS           SUNNY     60  39  45 NW3       30.14F
HILL CITY      SUNNY     67  37  33 NW6       30.15S
RUSSELL        SUNNY     57  43  59 SW9       30.12F
$$

KSZ061>065-074>080-084>089-171700-
SOUTHWEST KANSAS

CITY           SKY/WX    TMP DP  RH WIND       PRES   REMARKS
DODGE CITY     SUNNY     60  40  47 S6        30.17S
ELKHART          N/A     62  41  46 NE8         N/A
GARDEN CITY    SUNNY     62  35  36 E6        30.17R
GREAT BEND     SUNNY     60  41  49 W9        30.15F
LIBERAL        SUNNY     57  43  59 VRB3      30.17F
PRATT          SUNNY     60  38  43 SW14G20   30.16F
$$

KSZ066>073-081>083-090>101-171700-
SOUTHEAST KANSAS

CITY           SKY/WX    TMP DP  RH WIND       PRES   REMARKS
CHANUTE        SUNNY     62  45  53 S17       30.26F
COFFEYVILLE    SUNNY     62  48  60 S13       30.27F
HUTCHINSON     SUNNY     62  43  49 S14       30.16F
MEDICINE LODGE   N/A     59  40  49 S12       30.17F
NEWTON         SUNNY     62  42  47 S20G25    30.18
PARSONS        SUNNY     61  46  57 S9        30.28F
WICHITA INTL   SUNNY     62  44  51 S17G26    30.19F
WICHITA JABRA  SUNNY     63  43  48 S15G26    30.19F
WICHITA MCCONL SUNNY     63  41  44 SW15G24   30.20S
WINFIELD       SUNNY     64  43  46 S16G24    30.23F
$$

KSZ007>012-019>026-033>040-048>060-102>105-171700-
NORTHEAST KANSAS

CITY           SKY/WX    TMP DP  RH WIND       PRES   REMARKS
CONCORDIA      SUNNY     58  43  57 SW9       30.13S
EMPORIA        SUNNY     62  43  49 S13       30.20S
LAWRENCE       SUNNY     63  44  50 S16G22    30.20F
MANHATTAN      SUNNY     65  43  44 SW18G25   30.15S
MARYSVILLE     SUNNY     61  43  51 SW15      30.13F
OLATHE IND     SUNNY     62  45  53 S13G25    30.22F
OLATHE EXE     SUNNY     60  43  53 S16       30.23F
SALINA         SUNNY     63  43  48 SW16      30.15F
TOPEKA BILLARD SUNNY     65  43  44 S14G24    30.18F
TOPEKA FORBES  SUNNY     66  43  43 S17G28    30.18F
$$




USA.gov is the U.S. government's official web portal to all federal, state and local government web resources and services.